iso_date,epoch_date,Year,Hour,Min,DOY,POS_DOY,Lat,Lon,BP,Ts,Ta,has_bp,has_ts,has_ta,BuoyID,Buoy_Type,Buoy_Owner,Logistics,Hemisphere
2018-09-13T12:00:00Z,1536840000,2018,12,0,256.5,256.5,81.32952,100.82159,-999.00,-0.35,-999.0,no,yes,no,300234011880340,SVP,AWI-USIABP,PACEX2,North
2018-09-13T12:30:14Z,1536841814,2018,12,30,256.521,256.521,81.29933,101.56808,-999.00,-1.3,-999.0,no,yes,no,300234011880340,SVP,AWI-USIABP,PACEX2,North
2018-09-13T13:00:28Z,1536843629,2018,13,0,256.542,256.542,81.26919,102.3047,-999.00,-1.45,-999.0,no,yes,no,300234011880340,SVP,AWI-USIABP,PACEX2,North
2018-09-13T13:29:16Z,1536845357,2018,13,30,256.562,256.562,81.23862,103.04144,-999.00,-1.55,-999.0,no,yes,no,300234011880340,SVP,AWI-USIABP,PACEX2,North
2018-09-13T13:59:31Z,1536847171,2018,14,0,256.583,256.583,81.20796,103.79185,-999.00,-1.5,-999.0,no,yes,no,300234011880340,SVP,AWI-USIABP,PACEX2,North
2018-09-13T14:29:45Z,1536848986,2018,14,30,256.604,256.604,81.17772,104.51502,-999.00,-1.4,-999.0,no,yes,no,300234011880340,SVP,AWI-USIABP,PACEX2,North
2018-09-13T15:00:00Z,1536850800,2018,15,0,256.625,256.625,81.17767,105.25655,-999.00,-1.45,-999.0,no,yes,no,300234011880340,SVP,AWI-USIABP,PACEX2,North
2018-09-13T15:30:14Z,1536852614,2018,15,30,256.646,256.646,81.20012,105.99808,-999.00,-1.7,-999.0,no,yes,no,300234011880340,SVP,AWI-USIABP,PACEX2,North
2018-09-13T16:00:28Z,1536854429,2018,16,0,256.667,256.667,81.22262,106.74902,-999.00,-1.9,-999.0,no,yes,no,300234011880340,SVP,AWI-USIABP,PACEX2,North
2018-09-13T16:30:43Z,1536856243,2018,16,30,256.688,256.688,81.24539,107.50194,-999.00,-2.15,-999.0,no,yes,no,300234011880340,SVP,AWI-USIABP,PACEX2,North
2018-09-13T16:59:31Z,1536857971,2018,17,0,256.708,256.708,81.2684,108.26392,-999.00,-2.3,-999.0,no,yes,no,300234011880340,SVP,AWI-USIABP,PACEX2,North
2018-09-13T17:29:45Z,1536859786,2018,17,30,256.729,256.729,81.28446,109.01649,-999.00,-2.8,-999.0,no,yes,no,300234011880340,SVP,AWI-USIABP,PACEX2,North
2018-09-13T19:00:28Z,1536865229,2018,19,0,256.792,256.792,81.32476,110.42635,-999.00,-3.15,-999.0,no,yes,no,300234011880340,SVP,AWI-USIABP,PACEX2,North
2018-09-13T19:29:16Z,1536866957,2018,19,30,256.812,256.812,81.34176,110.77132,-999.00,-3.6,-999.0,no,yes,no,300234011880340,SVP,AWI-USIABP,PACEX2,North
2018-09-13T19:59:31Z,1536868771,2018,20,0,256.833,256.833,81.34579,111.12754,-999.00,-3.9,-999.0,no,yes,no,300234011880340,SVP,AWI-USIABP,PACEX2,North
2018-09-13T20:29:45Z,1536870586,2018,20,30,256.854,256.854,81.35896,111.49164,-999.00,-4.1,-999.0,no,yes,no,300234011880340,SVP,AWI-USIABP,PACEX2,North
2018-09-13T21:00:00Z,1536872400,2018,21,0,256.875,256.875,81.37355,111.86789,-999.00,-3.95,-999.0,no,yes,no,300234011880340,SVP,AWI-USIABP,PACEX2,North
2018-09-13T21:30:14Z,1536874214,2018,21,30,256.896,256.896,81.38821,112.28276,-999.00,-3.4,-999.0,no,yes,no,300234011880340,SVP,AWI-USIABP,PACEX2,North
2018-09-13T22:00:28Z,1536876029,2018,22,0,256.917,256.917,81.39946,112.69735,-999.00,-3.35,-999.0,no,yes,no,300234011880340,SVP,AWI-USIABP,PACEX2,North
2018-09-13T22:30:43Z,1536877843,2018,22,30,256.938,256.938,81.41122,113.14651,-999.00,-3.5,-999.0,no,yes,no,300234011880340,SVP,AWI-USIABP,PACEX2,North
2018-09-13T22:59:31Z,1536879571,2018,23,0,256.958,256.958,81.42393,113.61039,-999.00,-3.75,-999.0,no,yes,no,300234011880340,SVP,AWI-USIABP,PACEX2,North
2018-09-13T23:29:45Z,1536881386,2018,23,30,256.979,256.979,81.44123,114.0972,-999.00,-3.65,-999.0,no,yes,no,300234011880340,SVP,AWI-USIABP,PACEX2,North
2018-09-14T00:00:00Z,1536883200,2018,0,0,257.0,257.0,81.43943,114.48113,-999.00,-3.65,-999.0,no,yes,no,300234011880340,SVP,AWI-USIABP,PACEX2,North
2018-09-14T00:30:14Z,1536885014,2018,0,30,257.021,257.021,81.41082,114.82682,-999.00,-4.35,-999.0,no,yes,no,300234011880340,SVP,AWI-USIABP,PACEX2,North
2018-09-14T01:00:28Z,1536886829,2018,1,0,257.042,257.042,81.39252,115.18709,-999.00,-4.4,-999.0,no,yes,no,300234011880340,SVP,AWI-USIABP,PACEX2,North
2018-09-14T01:29:16Z,1536888557,2018,1,30,257.062,257.062,81.36348,115.46688,-999.00,-4.5,-999.0,no,yes,no,300234011880340,SVP,AWI-USIABP,PACEX2,North
2018-09-14T01:59:31Z,1536890371,2018,2,0,257.083,257.083,81.35951,115.83989,-999.00,-3.8,-999.0,no,yes,no,300234011880340,SVP,AWI-USIABP,PACEX2,North
2018-09-14T02:29:45Z,1536892186,2018,2,30,257.104,257.104,81.33671,116.15922,-999.00,-3.25,-999.0,no,yes,no,300234011880340,SVP,AWI-USIABP,PACEX2,North
2018-09-14T03:00:00Z,1536894000,2018,3,0,257.125,257.125,81.31323,116.52084,-999.00,-2.65,-999.0,no,yes,no,300234011880340,SVP,AWI-USIABP,PACEX2,North
2018-09-14T03:30:14Z,1536895814,2018,3,30,257.146,257.146,81.29662,116.88013,-999.00,-2.1,-999.0,no,yes,no,300234011880340,SVP,AWI-USIABP,PACEX2,North
2018-09-14T04:00:28Z,1536897629,2018,4,0,257.167,257.167,81.27456,117.23353,-999.00,-2.2,-999.0,no,yes,no,300234011880340,SVP,AWI-USIABP,PACEX2,North
2018-09-14T04:30:43Z,1536899443,2018,4,30,257.188,257.188,81.25605,117.57877,-999.00,-2.15,-999.0,no,yes,no,300234011880340,SVP,AWI-USIABP,PACEX2,North
2018-09-14T04:59:31Z,1536901171,2018,5,0,257.208,257.208,81.23464,117.9287,-999.00,-2.15,-999.0,no,yes,no,300234011880340,SVP,AWI-USIABP,PACEX2,North
2018-09-14T05:29:45Z,1536902986,2018,5,30,257.229,257.229,81.21454,118.27771,-999.00,-2.1,-999.0,no,yes,no,300234011880340,SVP,AWI-USIABP,PACEX2,North
2018-09-14T06:00:00Z,1536904800,2018,6,0,257.25,257.25,81.1965,118.62706,-999.00,-1.9,-999.0,no,yes,no,300234011880340,SVP,AWI-USIABP,PACEX2,North
2018-09-14T06:30:14Z,1536906614,2018,6,30,257.271,257.271,81.17606,118.96754,-999.00,-1.75,-999.0,no,yes,no,300234011880340,SVP,AWI-USIABP,PACEX2,North
2018-09-14T07:00:28Z,1536908429,2018,7,0,257.292,257.292,81.15548,119.32538,-999.00,-1.65,-999.0,no,yes,no,300234011880340,SVP,AWI-USIABP,PACEX2,North
2018-09-14T07:29:16Z,1536910157,2018,7,30,257.312,257.312,81.13369,119.67167,-999.00,-1.7,-999.0,no,yes,no,300234011880340,SVP,AWI-USIABP,PACEX2,North
2018-09-14T07:59:31Z,1536911971,2018,8,0,257.333,257.333,81.11069,120.04066,-999.00,-1.85,-999.0,no,yes,no,300234011880340,SVP,AWI-USIABP,PACEX2,North
2018-09-14T08:29:45Z,1536913786,2018,8,30,257.354,257.354,81.09997,120.40539,-999.00,-1.95,-999.0,no,yes,no,300234011880340,SVP,AWI-USIABP,PACEX2,North
2018-09-14T09:00:00Z,1536915600,2018,9,0,257.375,257.375,81.09826,120.67879,-999.00,-2.0,-999.0,no,yes,no,300234011880340,SVP,AWI-USIABP,PACEX2,North
2018-09-14T09:30:14Z,1536917414,2018,9,30,257.396,257.396,81.09589,120.97869,-999.00,-2.25,-999.0,no,yes,no,300234011880340,SVP,AWI-USIABP,PACEX2,North
2018-09-14T10:00:28Z,1536919229,2018,10,0,257.417,257.417,81.09341,121.34767,-999.00,-2.5,-999.0,no,yes,no,300234011880340,SVP,AWI-USIABP,PACEX2,North
2018-09-14T10:30:43Z,1536921043,2018,10,30,257.438,257.438,81.09078,121.71592,-999.00,-2.55,-999.0,no,yes,no,300234011880340,SVP,AWI-USIABP,PACEX2,North
2018-09-14T10:59:31Z,1536922771,2018,11,0,257.458,257.458,81.08825,122.10893,-999.00,-2.5,-999.0,no,yes,no,300234011880340,SVP,AWI-USIABP,PACEX2,North
2018-09-14T11:29:45Z,1536924586,2018,11,30,257.479,257.479,81.08572,122.51224,-999.00,-2.65,-999.0,no,yes,no,300234011880340,SVP,AWI-USIABP,PACEX2,North
2018-09-14T12:00:00Z,1536926400,2018,12,0,257.5,257.5,81.08286,122.9047,-999.00,-2.75,-999.0,no,yes,no,300234011880340,SVP,AWI-USIABP,PACEX2,North
2018-09-14T12:30:14Z,1536928214,2018,12,30,257.521,257.521,81.12119,123.12506,-999.00,-2.75,-999.0,no,yes,no,300234011880340,SVP,AWI-USIABP,PACEX2,North
2018-09-14T13:00:28Z,1536930029,2018,13,0,257.542,257.542,81.17422,123.27627,-999.00,-3.0,-999.0,no,yes,no,300234011880340,SVP,AWI-USIABP,PACEX2,North
2018-09-14T13:29:16Z,1536931757,2018,13,30,257.562,257.562,81.22757,123.4202,-999.00,-3.05,-999.0,no,yes,no,300234011880340,SVP,AWI-USIABP,PACEX2,North
2018-09-14T13:59:31Z,1536933571,2018,14,0,257.583,257.583,81.24337,123.47812,-999.00,-3.1,-999.0,no,yes,no,300234011880340,SVP,AWI-USIABP,PACEX2,North
2018-09-14T14:29:45Z,1536935386,2018,14,30,257.604,257.604,81.24402,123.47361,-999.00,-3.0,-999.0,no,yes,no,300234011880340,SVP,AWI-USIABP,PACEX2,North
2018-09-14T15:00:00Z,1536937200,2018,15,0,257.625,257.625,81.24428,123.48239,-999.00,-2.7,-999.0,no,yes,no,300234011880340,SVP,AWI-USIABP,PACEX2,North
2018-09-14T15:30:14Z,1536939014,2018,15,30,257.646,257.646,81.24551,123.48796,-999.00,-2.9,-999.0,no,yes,no,300234011880340,SVP,AWI-USIABP,PACEX2,North
2018-09-14T16:00:28Z,1536940829,2018,16,0,257.667,257.667,81.24504,123.49008,-999.00,-2.9,-999.0,no,yes,no,300234011880340,SVP,AWI-USIABP,PACEX2,North
2018-09-14T16:30:43Z,1536942643,2018,16,30,257.688,257.688,81.2442,123.481,-999.00,-2.65,-999.0,no,yes,no,300234011880340,SVP,AWI-USIABP,PACEX2,North
2018-09-14T16:59:31Z,1536944371,2018,17,0,257.708,257.708,81.24394,123.48177,-999.00,-2.55,-999.0,no,yes,no,300234011880340,SVP,AWI-USIABP,PACEX2,North
2018-09-14T17:29:45Z,1536946186,2018,17,30,257.729,257.729,81.24399,123.48432,-999.00,-2.4,-999.0,no,yes,no,300234011880340,SVP,AWI-USIABP,PACEX2,North
2018-09-14T18:00:00Z,1536948000,2018,18,0,257.75,257.75,81.24397,123.49317,-999.00,-2.35,-999.0,no,yes,no,300234011880340,SVP,AWI-USIABP,PACEX2,North
2018-09-14T18:30:14Z,1536949814,2018,18,30,257.771,257.771,81.24413,123.51298,-999.00,-2.25,-999.0,no,yes,no,300234011880340,SVP,AWI-USIABP,PACEX2,North
2018-09-14T19:00:28Z,1536951629,2018,19,0,257.792,257.792,81.2438,123.534,-999.00,-2.15,-999.0,no,yes,no,300234011880340,SVP,AWI-USIABP,PACEX2,North
2018-09-14T19:29:16Z,1536953357,2018,19,30,257.812,257.812,81.25138,123.41754,-999.00,-2.15,-999.0,no,yes,no,300234011880340,SVP,AWI-USIABP,PACEX2,North
2018-09-14T19:59:31Z,1536955171,2018,20,0,257.833,257.833,81.28829,123.11204,-999.00,-2.2,-999.0,no,yes,no,300234011880340,SVP,AWI-USIABP,PACEX2,North
2018-09-14T20:29:45Z,1536956986,2018,20,30,257.854,257.854,81.32619,122.79693,-999.00,-2.25,-999.0,no,yes,no,300234011880340,SVP,AWI-USIABP,PACEX2,North
2018-09-14T21:00:00Z,1536958800,2018,21,0,257.875,257.875,81.36212,122.486,-999.00,-2.2,-999.0,no,yes,no,300234011880340,SVP,AWI-USIABP,PACEX2,North
2018-09-14T21:30:14Z,1536960614,2018,21,30,257.896,257.896,81.39857,122.16419,-999.00,-2.0,-999.0,no,yes,no,300234011880340,SVP,AWI-USIABP,PACEX2,North
2018-09-14T22:00:28Z,1536962429,2018,22,0,257.917,257.917,81.43688,121.82448,-999.00,-1.8,-999.0,no,yes,no,300234011880340,SVP,AWI-USIABP,PACEX2,North
2018-09-14T22:30:43Z,1536964243,2018,22,30,257.938,257.938,81.48975,121.72354,-999.00,-1.65,-999.0,no,yes,no,300234011880340,SVP,AWI-USIABP,PACEX2,North
2018-09-14T22:59:31Z,1536965971,2018,23,0,257.958,257.958,81.54725,121.64549,-999.00,-1.5,-999.0,no,yes,no,300234011880340,SVP,AWI-USIABP,PACEX2,North
2018-09-14T23:29:45Z,1536967786,2018,23,30,257.979,257.979,81.60488,121.56981,-999.00,-1.4,-999.0,no,yes,no,300234011880340,SVP,AWI-USIABP,PACEX2,North
2018-09-15T00:00:00Z,1536969600,2018,0,0,258.0,258.0,81.66585,121.4876,-999.00,-1.25,-999.0,no,yes,no,300234011880340,SVP,AWI-USIABP,PACEX2,North
2018-09-15T00:30:14Z,1536971414,2018,0,30,258.021,258.021,81.72361,121.38097,-999.00,-1.15,-999.0,no,yes,no,300234011880340,SVP,AWI-USIABP,PACEX2,North
2018-09-15T01:00:28Z,1536973229,2018,1,0,258.042,258.042,81.77856,121.24594,-999.00,-1.1,-999.0,no,yes,no,300234011880340,SVP,AWI-USIABP,PACEX2,North
2018-09-15T01:29:16Z,1536974957,2018,1,30,258.062,258.062,81.83446,121.12279,-999.00,-1.05,-999.0,no,yes,no,300234011880340,SVP,AWI-USIABP,PACEX2,North
2018-09-15T01:59:31Z,1536976771,2018,2,0,258.083,258.083,81.89113,120.99222,-999.00,-0.95,-999.0,no,yes,no,300234011880340,SVP,AWI-USIABP,PACEX2,North
2018-09-15T02:29:45Z,1536978586,2018,2,30,258.104,258.104,81.94659,120.87089,-999.00,-0.95,-999.0,no,yes,no,300234011880340,SVP,AWI-USIABP,PACEX2,North
2018-09-15T03:00:00Z,1536980400,2018,3,0,258.125,258.125,81.99761,120.76607,-999.00,-1.1,-999.0,no,yes,no,300234011880340,SVP,AWI-USIABP,PACEX2,North
2018-09-15T03:30:14Z,1536982214,2018,3,30,258.146,258.146,82.03076,120.54477,-999.00,-1.2,-999.0,no,yes,no,300234011880340,SVP,AWI-USIABP,PACEX2,North
2018-09-15T04:00:28Z,1536984029,2018,4,0,258.167,258.167,82.04622,120.21241,-999.00,-1.2,-999.0,no,yes,no,300234011880340,SVP,AWI-USIABP,PACEX2,North
2018-09-15T04:30:43Z,1536985843,2018,4,30,258.188,258.188,82.06503,119.84613,-999.00,-1.3,-999.0,no,yes,no,300234011880340,SVP,AWI-USIABP,PACEX2,North
2018-09-15T04:59:31Z,1536987571,2018,5,0,258.208,258.208,82.0698,119.75691,-999.00,-1.6,-999.0,no,yes,no,300234011880340,SVP,AWI-USIABP,PACEX2,North
2018-09-15T05:29:45Z,1536989386,2018,5,30,258.229,258.229,82.06911,119.77474,-999.00,-2.05,-999.0,no,yes,no,300234011880340,SVP,AWI-USIABP,PACEX2,North
2018-09-15T06:00:00Z,1536991200,2018,6,0,258.25,258.25,82.06753,119.78642,-999.00,-2.25,-999.0,no,yes,no,300234011880340,SVP,AWI-USIABP,PACEX2,North
2018-09-15T06:30:14Z,1536993014,2018,6,30,258.271,258.271,82.06588,119.79433,-999.00,-2.65,-999.0,no,yes,no,300234011880340,SVP,AWI-USIABP,PACEX2,North
2018-09-15T07:00:28Z,1536994829,2018,7,0,258.292,258.292,82.06588,119.48227,-999.00,-3.15,-999.0,no,yes,no,300234011880340,SVP,AWI-USIABP,PACEX2,North
2018-09-15T07:29:16Z,1536996557,2018,7,30,258.312,258.312,82.06319,119.28152,-999.00,-2.95,-999.0,no,yes,no,300234011880340,SVP,AWI-USIABP,PACEX2,North
2018-09-15T07:59:31Z,1536998371,2018,8,0,258.333,258.333,82.06185,119.27877,-999.00,-3.35,-999.0,no,yes,no,300234011880340,SVP,AWI-USIABP,PACEX2,North
2018-09-15T08:29:45Z,1537000186,2018,8,30,258.354,258.354,82.0609,119.26928,-999.00,-3.7,-999.0,no,yes,no,300234011880340,SVP,AWI-USIABP,PACEX2,North
2018-09-15T09:00:00Z,1537002000,2018,9,0,258.375,258.375,82.06019,119.25131,-999.00,-3.65,-999.0,no,yes,no,300234011880340,SVP,AWI-USIABP,PACEX2,North
2018-09-15T09:30:14Z,1537003814,2018,9,30,258.396,258.396,82.01266,119.2886,-999.00,-3.25,-999.0,no,yes,no,300234011880340,SVP,AWI-USIABP,PACEX2,North
2018-09-15T10:00:28Z,1537005629,2018,10,0,258.417,258.417,81.95668,119.32034,-999.00,-2.45,-999.0,no,yes,no,300234011880340,SVP,AWI-USIABP,PACEX2,North
2018-09-15T10:30:43Z,1537007443,2018,10,30,258.438,258.438,81.95949,119.29837,-999.00,-2.15,-999.0,no,yes,no,300234011880340,SVP,AWI-USIABP,PACEX2,North
2018-09-15T10:59:31Z,1537009171,2018,11,0,258.458,258.458,81.96103,119.2835,-999.00,-2.0,-999.0,no,yes,no,300234011880340,SVP,AWI-USIABP,PACEX2,North
2018-09-15T11:29:45Z,1537010986,2018,11,30,258.479,258.479,81.96295,119.27426,-999.00,-1.9,-999.0,no,yes,no,300234011880340,SVP,AWI-USIABP,PACEX2,North
2018-09-15T12:00:00Z,1537012800,2018,12,0,258.5,258.5,81.95757,119.50297,-999.00,-1.85,-999.0,no,yes,no,300234011880340,SVP,AWI-USIABP,PACEX2,North
2018-09-15T12:30:14Z,1537014614,2018,12,30,258.521,258.521,81.9556,119.77662,-999.00,-1.9,-999.0,no,yes,no,300234011880340,SVP,AWI-USIABP,PACEX2,North
2018-09-15T13:00:28Z,1537016429,2018,13,0,258.542,258.542,81.95812,119.76865,-999.00,-1.65,-999.0,no,yes,no,300234011880340,SVP,AWI-USIABP,PACEX2,North
2018-09-15T13:29:16Z,1537018157,2018,13,30,258.562,258.562,81.96059,119.76645,-999.00,-1.75,-999.0,no,yes,no,300234011880340,SVP,AWI-USIABP,PACEX2,North
2018-09-15T13:59:31Z,1537019971,2018,14,0,258.583,258.583,81.96239,119.76405,-999.00,-1.7,-999.0,no,yes,no,300234011880340,SVP,AWI-USIABP,PACEX2,North
2018-09-15T14:29:45Z,1537021786,2018,14,30,258.604,258.604,81.94272,119.93795,-999.00,-1.75,-999.0,no,yes,no,300234011880340,SVP,AWI-USIABP,PACEX2,North
2018-09-15T15:00:00Z,1537023600,2018,15,0,258.625,258.625,81.90191,120.19782,-999.00,-1.75,-999.0,no,yes,no,300234011880340,SVP,AWI-USIABP,PACEX2,North
2018-09-15T15:30:14Z,1537025414,2018,15,30,258.646,258.646,81.85883,120.49018,-999.00,-1.85,-999.0,no,yes,no,300234011880340,SVP,AWI-USIABP,PACEX2,North
2018-09-15T16:00:28Z,1537027229,2018,16,0,258.667,258.667,81.80592,120.6541,-999.00,-1.85,-999.0,no,yes,no,300234011880340,SVP,AWI-USIABP,PACEX2,North
2018-09-15T16:30:43Z,1537029043,2018,16,30,258.688,258.688,81.75311,120.78253,-999.00,-1.85,-999.0,no,yes,no,300234011880340,SVP,AWI-USIABP,PACEX2,North
2018-09-15T16:59:31Z,1537030771,2018,17,0,258.708,258.708,81.69927,120.90119,-999.00,-2.0,-999.0,no,yes,no,300234011880340,SVP,AWI-USIABP,PACEX2,North
2018-09-15T17:29:45Z,1537032586,2018,17,30,258.729,258.729,81.6446,121.00307,-999.00,-2.15,-999.0,no,yes,no,300234011880340,SVP,AWI-USIABP,PACEX2,North
2018-09-15T18:00:00Z,1537034400,2018,18,0,258.75,258.75,81.58816,121.0928,-999.00,-2.4,-999.0,no,yes,no,300234011880340,SVP,AWI-USIABP,PACEX2,North
2018-09-15T18:30:14Z,1537036214,2018,18,30,258.771,258.771,81.53332,121.20318,-999.00,-2.45,-999.0,no,yes,no,300234011880340,SVP,AWI-USIABP,PACEX2,North
2018-09-15T19:00:28Z,1537038029,2018,19,0,258.792,258.792,81.48377,121.06694,-999.00,-2.8,-999.0,no,yes,no,300234011880340,SVP,AWI-USIABP,PACEX2,North
2018-09-15T19:29:16Z,1537039757,2018,19,30,258.812,258.812,81.44334,120.94083,-999.00,-2.95,-999.0,no,yes,no,300234011880340,SVP,AWI-USIABP,PACEX2,North
2018-09-15T19:59:31Z,1537041571,2018,20,0,258.833,258.833,81.44648,120.92296,-999.00,-2.85,-999.0,no,yes,no,300234011880340,SVP,AWI-USIABP,PACEX2,North
2018-09-15T20:29:45Z,1537043386,2018,20,30,258.854,258.854,81.44741,120.90883,-999.00,-2.9,-999.0,no,yes,no,300234011880340,SVP,AWI-USIABP,PACEX2,North
2018-09-15T21:00:00Z,1537045200,2018,21,0,258.875,258.875,81.4478,120.89083,-999.00,-2.9,-999.0,no,yes,no,300234011880340,SVP,AWI-USIABP,PACEX2,North
2018-09-15T21:30:14Z,1537047014,2018,21,30,258.896,258.896,81.44808,120.86252,-999.00,-2.95,-999.0,no,yes,no,300234011880340,SVP,AWI-USIABP,PACEX2,North
2018-09-15T22:00:28Z,1537048829,2018,22,0,258.917,258.917,81.44949,120.83176,-999.00,-3.0,-999.0,no,yes,no,300234011880340,SVP,AWI-USIABP,PACEX2,North
2018-09-15T22:30:43Z,1537050643,2018,22,30,258.938,258.938,81.45149,120.81292,-999.00,-3.15,-999.0,no,yes,no,300234011880340,SVP,AWI-USIABP,PACEX2,North
2018-09-15T22:59:31Z,1537052371,2018,23,0,258.958,258.958,81.44186,120.94736,-999.00,-3.0,-999.0,no,yes,no,300234011880340,SVP,AWI-USIABP,PACEX2,North
2018-09-15T23:29:45Z,1537054186,2018,23,30,258.979,258.979,81.44378,120.93242,-999.00,-3.15,-999.0,no,yes,no,300234011880340,SVP,AWI-USIABP,PACEX2,North
2018-09-16T00:00:00Z,1537056000,2018,0,0,259.0,259.0,81.44541,120.91088,-999.00,-2.95,-999.0,no,yes,no,300234011880340,SVP,AWI-USIABP,PACEX2,North
2018-09-16T00:30:14Z,1537057814,2018,0,30,259.021,259.021,81.44818,120.90027,-999.00,-3.2,-999.0,no,yes,no,300234011880340,SVP,AWI-USIABP,PACEX2,North
2018-09-16T01:00:28Z,1537059629,2018,1,0,259.042,259.042,81.45005,120.88784,-999.00,-3.0,-999.0,no,yes,no,300234011880340,SVP,AWI-USIABP,PACEX2,North
2018-09-16T01:29:16Z,1537061357,2018,1,30,259.062,259.062,81.45313,120.88024,-999.00,-3.05,-999.0,no,yes,no,300234011880340,SVP,AWI-USIABP,PACEX2,North
2018-09-16T01:59:31Z,1537063171,2018,2,0,259.083,259.083,81.45734,120.87198,-999.00,-3.1,-999.0,no,yes,no,300234011880340,SVP,AWI-USIABP,PACEX2,North
2018-09-16T02:29:45Z,1537064986,2018,2,30,259.104,259.104,81.4265,120.82014,-999.00,-2.8,-999.0,no,yes,no,300234011880340,SVP,AWI-USIABP,PACEX2,North
2018-09-16T03:00:00Z,1537066800,2018,3,0,259.125,259.125,81.36656,120.77457,-999.00,-2.6,-999.0,no,yes,no,300234011880340,SVP,AWI-USIABP,PACEX2,North
2018-09-16T03:30:14Z,1537068614,2018,3,30,259.146,259.146,81.31683,120.76136,-999.00,-2.4,-999.0,no,yes,no,300234011880340,SVP,AWI-USIABP,PACEX2,North
2018-09-16T04:00:28Z,1537070429,2018,4,0,259.167,259.167,81.3182,120.93977,-999.00,-2.4,-999.0,no,yes,no,300234011880340,SVP,AWI-USIABP,PACEX2,North
2018-09-16T04:30:43Z,1537072243,2018,4,30,259.188,259.188,81.31994,121.12363,-999.00,-2.3,-999.0,no,yes,no,300234011880340,SVP,AWI-USIABP,PACEX2,North
2018-09-16T04:59:31Z,1537073971,2018,5,0,259.208,259.208,81.31924,121.33643,-999.00,-2.25,-999.0,no,yes,no,300234011880340,SVP,AWI-USIABP,PACEX2,North
2018-09-16T05:29:45Z,1537075786,2018,5,30,259.229,259.229,81.31337,121.61047,-999.00,-2.05,-999.0,no,yes,no,300234011880340,SVP,AWI-USIABP,PACEX2,North
2018-09-16T06:00:00Z,1537077600,2018,6,0,259.25,259.25,81.31758,121.88929,-999.00,-1.9,-999.0,no,yes,no,300234011880340,SVP,AWI-USIABP,PACEX2,North
2018-09-16T06:30:14Z,1537079414,2018,6,30,259.271,259.271,81.32532,122.19188,-999.00,-1.8,-999.0,no,yes,no,300234011880340,SVP,AWI-USIABP,PACEX2,North
2018-09-16T07:00:28Z,1537081229,2018,7,0,259.292,259.292,81.33153,122.45348,-999.00,-1.65,-999.0,no,yes,no,300234011880340,SVP,AWI-USIABP,PACEX2,North
2018-09-16T07:29:16Z,1537082957,2018,7,30,259.312,259.312,81.33736,122.72194,-999.00,-1.5,-999.0,no,yes,no,300234011880340,SVP,AWI-USIABP,PACEX2,North
2018-09-16T07:59:31Z,1537084771,2018,8,0,259.333,259.333,81.34406,122.98937,-999.00,-1.45,-999.0,no,yes,no,300234011880340,SVP,AWI-USIABP,PACEX2,North
2018-09-16T08:29:45Z,1537086586,2018,8,30,259.354,259.354,81.35029,123.24511,-999.00,-1.35,-999.0,no,yes,no,300234011880340,SVP,AWI-USIABP,PACEX2,North
2018-09-16T09:00:00Z,1537088400,2018,9,0,259.375,259.375,81.35643,123.5059,-999.00,-1.25,-999.0,no,yes,no,300234011880340,SVP,AWI-USIABP,PACEX2,North
2018-09-16T09:30:14Z,1537090214,2018,9,30,259.396,259.396,81.36253,123.76717,-999.00,-1.05,-999.0,no,yes,no,300234011880340,SVP,AWI-USIABP,PACEX2,North
2018-09-16T10:00:28Z,1537092029,2018,10,0,259.417,259.417,81.36903,124.03396,-999.00,-1.0,-999.0,no,yes,no,300234011880340,SVP,AWI-USIABP,PACEX2,North
2018-09-16T10:30:43Z,1537093843,2018,10,30,259.438,259.438,81.37303,124.30154,-999.00,-0.95,-999.0,no,yes,no,300234011880340,SVP,AWI-USIABP,PACEX2,North
2018-09-16T10:59:31Z,1537095571,2018,11,0,259.458,259.458,81.34468,124.47736,-999.00,-0.85,-999.0,no,yes,no,300234011880340,SVP,AWI-USIABP,PACEX2,North
2018-09-16T11:29:45Z,1537097386,2018,11,30,259.479,259.479,81.31631,124.35237,-999.00,-0.8,-999.0,no,yes,no,300234011880340,SVP,AWI-USIABP,PACEX2,North
2018-09-16T12:00:00Z,1537099200,2018,12,0,259.5,259.5,81.34197,124.14341,-999.00,-0.8,-999.0,no,yes,no,300234011880340,SVP,AWI-USIABP,PACEX2,North
2018-09-16T12:30:14Z,1537101014,2018,12,30,259.521,259.521,81.3703,124.20762,-999.00,-0.8,-999.0,no,yes,no,300234011880340,SVP,AWI-USIABP,PACEX2,North
2018-09-16T13:00:28Z,1537102829,2018,13,0,259.542,259.542,81.37902,124.46695,-999.00,-0.7,-999.0,no,yes,no,300234011880340,SVP,AWI-USIABP,PACEX2,North
2018-09-16T13:29:16Z,1537104557,2018,13,30,259.562,259.562,81.38362,124.71871,-999.00,-0.65,-999.0,no,yes,no,300234011880340,SVP,AWI-USIABP,PACEX2,North
2018-09-16T13:59:31Z,1537106371,2018,14,0,259.583,259.583,81.38684,124.98758,-999.00,-0.6,-999.0,no,yes,no,300234011880340,SVP,AWI-USIABP,PACEX2,North
2018-09-16T14:29:45Z,1537108186,2018,14,30,259.604,259.604,81.39189,125.25904,-999.00,-0.6,-999.0,no,yes,no,300234011880340,SVP,AWI-USIABP,PACEX2,North
2018-09-16T15:00:00Z,1537110000,2018,15,0,259.625,259.625,81.39589,125.52824,-999.00,-0.55,-999.0,no,yes,no,300234011880340,SVP,AWI-USIABP,PACEX2,North
2018-09-16T15:30:14Z,1537111814,2018,15,30,259.646,259.646,81.40014,125.80404,-999.00,-0.7,-999.0,no,yes,no,300234011880340,SVP,AWI-USIABP,PACEX2,North
2018-09-16T16:00:28Z,1537113629,2018,16,0,259.667,259.667,81.40437,126.06799,-999.00,-0.85,-999.0,no,yes,no,300234011880340,SVP,AWI-USIABP,PACEX2,North
2018-09-16T16:30:43Z,1537115443,2018,16,30,259.688,259.688,81.40924,126.34522,-999.00,-0.9,-999.0,no,yes,no,300234011880340,SVP,AWI-USIABP,PACEX2,North
2018-09-16T16:59:31Z,1537117171,2018,17,0,259.708,259.708,81.4132,126.62352,-999.00,-1.0,-999.0,no,yes,no,300234011880340,SVP,AWI-USIABP,PACEX2,North
2018-09-16T17:29:45Z,1537118986,2018,17,30,259.729,259.729,81.41735,126.89715,-999.00,-1.0,-999.0,no,yes,no,300234011880340,SVP,AWI-USIABP,PACEX2,North
2018-09-16T18:00:00Z,1537120800,2018,18,0,259.75,259.75,81.42159,127.17352,-999.00,-1.0,-999.0,no,yes,no,300234011880340,SVP,AWI-USIABP,PACEX2,North
2018-09-16T18:30:14Z,1537122614,2018,18,30,259.771,259.771,81.42615,127.44559,-999.00,-1.0,-999.0,no,yes,no,300234011880340,SVP,AWI-USIABP,PACEX2,North
2018-09-16T19:00:28Z,1537124429,2018,19,0,259.792,259.792,81.43018,127.7191,-999.00,-1.1,-999.0,no,yes,no,300234011880340,SVP,AWI-USIABP,PACEX2,North